Regional Weather Roundup
Issued by NWS

Home | Current Version | Previous Version | Text Only | Print | Product List | Glossary Off
Versions: 1 2 3 4 5 6 7 8 9 10 11 12 13 14 15 16 17 18 19 20 21 22 23 24 25 26 27 28

000
ASUS45 KSLC 252110
RWRUT

UTAH REGIONAL WEATHER ROUNDUP
NATIONAL WEATHER SERVICE SALT LAKE CITY UT
300 PM MDT SUN SEP 25 2016

UTZ001>011-023>025-252200-

NORTHERN UTAH

CITY           SKY/WX    TMP DP  RH WIND       PRES   REMARKS
BRIGHAM CITY     N/A     65  37  36 N6        30.46S
HILL AFB       SUNNY     63  37  37 N9        30.45F
LOGAN          SUNNY     64  38  38 VRB3      30.46F
OGDEN          SUNNY     64  39  39 NW6       30.44F
PROVO AIRPORT  SUNNY     63  42  46 SW7       30.45F
SALT LAKE CITY SUNNY     67  44  43 N13       30.43F
VERNAL         SUNNY     61  38  42 SW7       30.46F
WENDOVER       SUNNY     64  39  39 SE9       30.46F
HEBER CITY     SUNNY     66  28  24 NE5       30.43F
WEST JORDAN    SUNNY     63  43  49 NW13      30.46S

$$

UTZ012>022-026-027-252200-

SOUTHERN/CENTRAL UTAH

CITY           SKY/WX    TMP DP  RH WIND       PRES   REMARKS
BLANDING       SUNNY     70  30  22 CALM      30.43S
BRYCE CANYON   SUNNY     62  31  31 N13       30.47
CEDAR CITY     SUNNY     70  32  24 N16G23    30.37F
DELTA          SUNNY     68  36  30 NW9       30.43F
MILFORD        SUNNY     68  34  28 N21G29    30.40F
MOAB/CYNLANDS  SUNNY     70  35  27 NW13G20   30.35F
PRICE          SUNNY     63  35  35 S8        30.45F
ST GEORGE      CLEAR     82  36  18 NE12G20   30.25F

$$

REGIONAL REPORTS     COLORADO/ARIZONA

CITY           SKY/WX    TMP DP  RH WIND       PRES   REMARKS
CRAIG, CO      SUNNY     61  26  26 N3        30.48S
GRAND JUNCTION SUNNY     67  37  33 VRB5      30.37F
RIFLE          SUNNY     66  32  28 N3        30.40F
MONTROSE       SUNNY     63  38  39 VRB5      30.42F
CORTEZ         SUNNY     70  33  25 S5        30.34F
PAGE, AZ       SUNNY     74  27  17 E10       30.31F
GRAND CANYON   SUNNY     64  31  28 NE22G30   30.39F
KINGMAN        SUNNY     83  30  14 N23G29    30.18F
FLAGSTAFF      SUNNY     64  33  31 NE15G24   30.35F

$$

REGIONAL REPORTS    NEVADA/IDAHO/WYOMING

CITY           SKY/WX    TMP DP  RH WIND       PRES   REMARKS
LAS VEGAS, NV  SUNNY     86  25  11 NE17G24   30.18F
ELY            SUNNY     68  29  23 N15G24    30.47F
ELKO           SUNNY     72  24  16 E7        30.44F
POCATELLO, ID  SUNNY     65  34  31 N7        30.48F
BURLEY         SUNNY     63  39  41 W9        30.46F
EVANSTON, WY   SUNNY     59  19  21 N10       30.51F
ROCK SPRINGS   SUNNY     56  33  42 SW14      30.48F

$$




USA.gov is the U.S. government's official web portal to all federal, state and local government web resources and services.